Rogers City, MI

10:35 PM EDT on March 24, 2017 (GMT -0400)
Presque Isle County

Weather History for KPZQ - April, 2013

Change the Weather History Date:

Wednesday, April 17, 2013

  Actual Average (KAPN) Record (KAPN)
Temperature  
Mean Temperature 35 °F -  
Max Temperature 42 °F 53 °F 85 °F (1958)
Min Temperature 28 °F 32 °F 10 °F (1949)
Degree Days  
Heating Degree Days 30    
Moisture  
Dew Point 30 °F    
Average Humidity 80    
Maximum Humidity 96    
Minimum Humidity 65    
Precipitation  
Precipitation 0.00 in - - ()
Sea Level Pressure  
Sea Level Pressure 30.34 in    
Wind  
Wind Speed 7 mph (East)    
Max Wind Speed 16 mph    
Max Gust Speed 21 mph    
Visibility 10 miles    
Events Rain    
Averages and records for this station are not official NWS values.
T = Trace of Precipitation, MM = Missing Value Source: NWS Daily Summary

Daily Weather History Graph

Daily Weather History Graph

Search for Another Location

Airport or City:

Trip Planner

Search our weather history database for the weather conditions in past years. The results will help you decide how hot, cold, wet, or windy it might be!

Date:

Astronomy

Apr. 17, 2013 Rise Set
Actual Time 6:46 AM EDT 8:24 PM EDT
Civil Twilight 6:14 AM EDT 8:55 PM EDT
Nautical Twilight 5:37 AM EDT 9:33 PM EDT
Astronomical Twilight 4:56 AM EDT 10:14 PM EDT
Moon 11:53 AM EDT (4/17) 2:07 AM EDT (4/17)
Length of Visible Light 14h 40m
Length of Day
13h 38m
Waxing Crescent, 42% of the Moon is Illuminated
Apr 17
Waxing Crescent
Apr 18
First Quarter
Apr 25
Full
May 2
Last Quarter
May 9
New

Hourly Weather History & Observations

Time (EDT) Temp. Windchill Dew Point Humidity Pressure Visibility Wind Dir Wind Speed Gust Speed Precip Events Conditions
12:15 AM 34.0 °F 28.8 °F 30.4 °F 87% 30.32 in 10.0 mi NW 5.8 mph - N/A   Clear
12:35 AM 33.8 °F 27.7 °F 30.2 °F 87% 30.32 in 10.0 mi NW 6.9 mph - N/A   Clear
12:55 AM 33.8 °F 27.7 °F 30.2 °F 87% 30.32 in 10.0 mi NNW 6.9 mph - N/A   Clear
1:15 AM 33.6 °F 28.4 °F 30.0 °F 87% 30.33 in 10.0 mi NW 5.8 mph - N/A   Clear
1:35 AM 32.9 °F 27.5 °F 29.3 °F 87% 30.33 in 10.0 mi NW 5.8 mph - N/A   Clear
1:54 AM 32.4 °F 29.1 °F 29.1 °F 88% 30.34 in 10.0 mi WNW 3.5 mph - N/A   Clear
2:15 AM 32.0 °F 28.7 °F 29.1 °F 89% 30.35 in 10.0 mi NW 3.5 mph - N/A   Clear
2:35 AM 31.1 °F 27.7 °F 28.4 °F 90% 30.35 in 10.0 mi West 3.5 mph - N/A   Clear
2:55 AM 31.1 °F 27.7 °F 28.6 °F 90% 30.35 in 10.0 mi West 3.5 mph - N/A   Clear
3:15 AM 31.1 °F 27.7 °F 28.4 °F 90% 30.36 in 10.0 mi West 3.5 mph - N/A   Clear
3:34 AM 30.9 °F 27.5 °F 28.4 °F 90% 30.36 in 10.0 mi WNW 3.5 mph - N/A   Clear
3:55 AM 30.6 °F 27.1 °F 28.2 °F 91% 30.37 in 10.0 mi West 3.5 mph - N/A   Clear
4:15 AM 30.2 °F 26.7 °F 28.0 °F 92% 30.38 in 10.0 mi West 3.5 mph - N/A   Clear
4:35 AM 30.4 °F 26.9 °F 28.0 °F 91% 30.38 in 10.0 mi West 3.5 mph - N/A   Clear
4:55 AM 30.2 °F 26.7 °F 27.9 °F 91% 30.38 in 10.0 mi West 3.5 mph - N/A   Clear
5:15 AM 30.0 °F 26.5 °F 27.7 °F 91% 30.39 in 10.0 mi WNW 3.5 mph - N/A   Clear
5:35 AM 29.8 °F - 27.5 °F 91% 30.39 in 10.0 mi Calm Calm - N/A   Clear
5:55 AM 29.3 °F - 27.3 °F 92% 30.39 in 10.0 mi Calm Calm - N/A   Clear
6:15 AM 28.9 °F - 27.1 °F 93% 30.40 in 10.0 mi Calm Calm - N/A   Clear
6:35 AM 28.9 °F 25.2 °F 27.1 °F 93% 30.40 in 10.0 mi WNW 3.5 mph - N/A   Clear
6:55 AM 28.8 °F - 27.0 °F 93% 30.41 in 10.0 mi Calm Calm - N/A   Clear
7:15 AM 28.6 °F - 27.1 °F 94% 30.41 in 10.0 mi Calm Calm - N/A   Clear
7:35 AM 29.5 °F - 28.0 °F 94% 30.41 in 10.0 mi Calm Calm - N/A   Clear
7:55 AM 32.5 °F 29.3 °F 31.5 °F 96% 30.41 in 10.0 mi North 3.5 mph - N/A   Clear
8:15 AM 34.7 °F 30.6 °F 32.4 °F 91% 30.41 in 10.0 mi NNE 4.6 mph - N/A   Clear
8:35 AM 35.1 °F 31.0 °F 32.5 °F 91% 30.42 in 10.0 mi NNE 4.6 mph - N/A   Clear
8:55 AM 36.1 °F 32.3 °F 33.3 °F 89% 30.42 in 10.0 mi NE 4.6 mph - N/A   Clear
9:15 AM 36.9 °F 30.7 °F 33.3 °F 87% 30.42 in 10.0 mi ENE 8.1 mph - N/A   Clear
9:35 AM 37.6 °F 31.6 °F 33.1 °F 84% 30.42 in 10.0 mi East 8.1 mph - N/A   Scattered Clouds
10:15 AM 38.8 °F 32.1 °F 32.4 °F 78% 30.43 in 10.0 mi East 10.4 mph - N/A   Scattered Clouds
10:34 AM 38.8 °F 32.6 °F 32.0 °F 76% 30.42 in 10.0 mi East 9.2 mph - N/A   Scattered Clouds
10:55 AM 39.2 °F 32.0 °F 32.0 °F 75% 30.43 in 10.0 mi ENE 11.5 mph - N/A   Clear
11:15 AM 39.0 °F 32.3 °F 32.0 °F 76% 30.43 in 10.0 mi ENE 10.4 mph - N/A   Clear
11:35 AM 39.2 °F 32.0 °F 32.0 °F 75% 30.44 in 10.0 mi East 11.5 mph - N/A   Clear
11:55 AM 39.2 °F 31.2 °F 32.0 °F 75% 30.43 in 10.0 mi ENE 13.8 mph - N/A   Clear
12:15 PM 39.2 °F 31.2 °F 32.0 °F 75% 30.43 in 10.0 mi East 13.8 mph - N/A   Clear
12:35 PM 39.7 °F 32.3 °F 32.4 °F 75% 30.43 in 10.0 mi East 12.7 mph - N/A   Clear
12:55 PM 40.3 °F 33.0 °F 32.5 °F 74% 30.40 in 10.0 mi ENE 12.7 mph 18.4 mph N/A   Clear
1:15 PM 41.9 °F 35.0 °F 33.4 °F 72% 30.40 in 10.0 mi East 12.7 mph 17.3 mph N/A   Clear
1:35 PM 41.2 °F 34.1 °F 32.5 °F 71% 30.39 in 10.0 mi ENE 12.7 mph - N/A   Clear
1:54 PM 41.4 °F 34.3 °F 32.9 °F 72% 30.38 in 10.0 mi East 12.7 mph 18.4 mph N/A   Clear
2:15 PM 41.5 °F 33.8 °F 32.5 °F 70% 30.39 in 10.0 mi East 15.0 mph 19.6 mph N/A   Clear
2:35 PM 41.4 °F 34.3 °F 32.2 °F 70% 30.38 in 10.0 mi East 12.7 mph - N/A   Clear
2:55 PM 42.1 °F 35.7 °F 32.4 °F 68% 30.36 in 10.0 mi East 11.5 mph - N/A   Clear
3:15 PM 42.3 °F 35.1 °F 32.2 °F 67% 30.35 in 10.0 mi East 13.8 mph 17.3 mph N/A   Clear
3:35 PM 41.5 °F 33.5 °F 31.5 °F 67% 30.35 in 10.0 mi East 16.1 mph - N/A   Clear
3:55 PM 41.5 °F 34.2 °F 31.3 °F 67% 30.33 in 10.0 mi East 13.8 mph - N/A   Clear
4:35 PM 40.6 °F 32.7 °F 29.8 °F 65% 30.33 in 10.0 mi East 15.0 mph 19.6 mph N/A   Mostly Cloudy
4:55 PM 39.7 °F 32.7 °F 28.8 °F 65% 30.33 in 10.0 mi East 11.5 mph - N/A   Overcast
5:15 PM 39.6 °F 33.0 °F 28.9 °F 66% 30.32 in 10.0 mi ESE 10.4 mph - N/A   Overcast
5:35 PM 39.6 °F 32.5 °F 29.5 °F 67% 30.32 in 10.0 mi ESE 11.5 mph - N/A   Overcast
5:54 PM 39.4 °F 33.2 °F 29.8 °F 69% 30.32 in 10.0 mi East 9.2 mph - N/A   Overcast
6:15 PM 39.2 °F 32.5 °F 29.8 °F 69% 30.30 in 10.0 mi East 10.4 mph - N/A   Mostly Cloudy
6:35 PM 38.7 °F 32.4 °F 30.0 °F 71% 30.28 in 10.0 mi East 9.2 mph - N/A   Scattered Clouds
6:55 PM 38.8 °F 32.6 °F 30.0 °F 71% 30.27 in 10.0 mi ESE 9.2 mph - N/A   Overcast
7:15 PM 39.0 °F 32.8 °F 30.2 °F 71% 30.27 in 10.0 mi ESE 9.2 mph - N/A   Overcast
7:35 PM 39.2 °F 33.0 °F 29.7 °F 69% 30.25 in 10.0 mi SE 9.2 mph - N/A   Overcast
7:55 PM 39.4 °F 33.8 °F 29.7 °F 68% 30.23 in 10.0 mi ESE 8.1 mph - N/A   Overcast
8:15 PM 39.6 °F 34.0 °F 29.1 °F 66% 30.22 in 10.0 mi ESE 8.1 mph - N/A   Overcast
8:35 PM 39.6 °F 33.0 °F 29.3 °F 67% 30.23 in 10.0 mi ESE 10.4 mph - N/A   Light Drizzle
8:54 PM 39.2 °F 33.6 °F 30.2 °F 70% 30.22 in 10.0 mi ESE 8.1 mph - N/A Rain Light Rain
9:15 PM 38.5 °F 34.1 °F 30.9 °F 74% 30.22 in 10.0 mi ESE 5.8 mph - N/A Rain Light Rain
9:35 PM 38.3 °F 32.5 °F 31.1 °F 75% 30.22 in 10.0 mi ESE 8.1 mph - N/A Rain Light Rain
9:55 PM 37.8 °F 30.7 °F 31.5 °F 78% 30.20 in 7.0 mi SE 10.4 mph - N/A Rain Rain
10:15 PM 37.4 °F 30.8 °F 32.0 °F 81% 30.17 in 7.0 mi ESE 9.2 mph - N/A   Light Drizzle
10:55 PM 37.4 °F 29.8 °F 31.3 °F 79% 30.16 in 10.0 mi SE 11.5 mph 20.7 mph N/A   Overcast
11:15 PM 37.6 °F 31.0 °F 31.5 °F 79% 30.15 in 10.0 mi SE 9.2 mph 16.1 mph N/A   Drizzle
11:35 PM 37.8 °F 30.2 °F 31.1 °F 77% 30.15 in 10.0 mi ESE 11.5 mph - N/A   Overcast
11:55 PM 38.1 °F 32.9 °F 31.5 °F 77% 30.15 in 10.0 mi SE 6.9 mph - N/A   Overcast